User: anonymous   Login
Location: SAPM � Hemmingford
(45.0500°N, 73.5833°W)
Time: 11:52:27
(UTC-04:00)
Language:

Cosmos 1674 Rocket - Orbit

View from above orbital plane
View from above orbital plane
View from above satellite
View from above satellite

Ground track
Ground track

The orbit data is extracted from the following two-line orbital elements,

1 15945U 85069B   15122.17183350  .00000300  00000-0  33379-4 0  9993
2 15945 082.5257 140.6057 0018977 330.3090 029.7046 14.83678350605800
Epoch (UTC): 02 May 2015 04:07:26
Eccentricity: 0.0018977
inclination: 82.5257°
perigee height: 604 km
apogee height: 631 km
right ascension of ascending node: 140.6057°
argument of perigee: 330.3090°
revolutions per day: 14.83678350
mean anomaly at epoch: 29.7046°
orbit number at epoch: 60580

The dashed part of the orbit path shows where the satellite is in the earth's shadow,  

DLR